• In Hungary
  • List of Countries
  • For 7 days
  • Water Temperature
  • Satellite Maps
  • Weather Map
  • News
  • Weather Widgets
  • user-avatar
    Login

    Hourly Weather Kabul

    Today, 16 July, Monday

    Time Temperature Precipitation Wind Pressure Humidity
    00:00 +27°C° 0 mm 1 mps 607 mmHg 40%
    01:00 +26°C° 0 mm 1 mps 607 mmHg 43%
    02:00 +25°C° 0 mm 1 mps 606 mmHg 45%
    03:00 +25°C° 0 mm 1 mps 606 mmHg 46%
    04:00 +22°C° 0 mm 0 mps 606 mmHg 47%
    05:00 +22°C° 0 mm 0 mps 606 mmHg 49%
    06:00 +25°C° 0 mm 1 mps 607 mmHg 45%
    07:00 +26°C° 0 mm 1 mps 607 mmHg 41%
    08:00 +27°C° 0 mm 1 mps 608 mmHg 37%
    09:00 +29°C° 0 mm 1 mps 608 mmHg 33%
    10:00 +30°C° 0 mm 1 mps 608 mmHg 28%
    11:00 +31°C° 0 mm 2 mps 609 mmHg 24%
    12:00 +32°C° 0 mm 2 mps 609 mmHg 23%
    13:00 +34°C° 0 mm 2 mps 609 mmHg 22%
    14:00 +35°C° 0 mm 3 mps 609 mmHg 21%
    15:00 +35°C° 0.1 mm 3 mps 608 mmHg 23%
    16:00 +34°C° 0.1 mm 3 mps 608 mmHg 25%
    17:00 +34°C° 0.1 mm 4 mps 608 mmHg 26%
    18:00 +33°C° 0.1 mm 3 mps 608 mmHg 29%
    19:00 +31°C° 0.1 mm 2 mps 608 mmHg 31%
    20:00 +29°C° 0.1 mm 1 mps 607 mmHg 34%
    21:00 +29°C° 0 mm 1 mps 608 mmHg 35%
    22:00 +28°C° 0 mm 1 mps 608 mmHg 36%
    23:00 +28°C° 0 mm 1 mps 608 mmHg 37%

    Tomorrow, 17 July, Tuesday

    Time Temperature Precipitation Wind Pressure Humidity
    00:00 +27°C° 0 mm 1 mps 607 mmHg 39%
    01:00 +26°C° 0 mm 1 mps 607 mmHg 41%
    02:00 +26°C° 0 mm 1 mps 607 mmHg 43%
    03:00 +25°C° 0 mm 1 mps 606 mmHg 44%
    04:00 +25°C° 0 mm 1 mps 606 mmHg 44%
    05:00 +24°C° 0 mm 1 mps 606 mmHg 45%
    06:00 +25°C° 0 mm 1 mps 607 mmHg 41%
    07:00 +27°C° 0 mm 1 mps 607 mmHg 38%
    08:00 +28°C° 0 mm 1 mps 608 mmHg 34%
    09:00 +29°C° 0 mm 1 mps 608 mmHg 30%
    10:00 +30°C° 0 mm 1 mps 609 mmHg 27%
    11:00 +32°C° 0 mm 2 mps 609 mmHg 23%
    12:00 +34°C° 0 mm 2 mps 609 mmHg 22%
    13:00 +35°C° 0 mm 2 mps 609 mmHg 20%
    14:00 +35°C° 0 mm 2 mps 609 mmHg 18%
    15:00 +35°C° 0 mm 3 mps 609 mmHg 18%
    16:00 +35°C° 0 mm 3 mps 609 mmHg 18%
    17:00 +35°C° 0 mm 3 mps 608 mmHg 18%
    18:00 +34°C° 0 mm 3 mps 608 mmHg 19%
    19:00 +32°C° 0 mm 2 mps 608 mmHg 21%
    20:00 +31°C° 0 mm 2 mps 608 mmHg 22%
    21:00 +30°C° 0 mm 2 mps 608 mmHg 24%
    22:00 +29°C° 0 mm 2 mps 608 mmHg 26%
    23:00 +28°C° 0 mm 2 mps 608 mmHg 28%

    Day after tomorrow, 18 July, Wednesday

    Time Temperature Precipitation Wind Pressure Humidity
    00:00 +27°C° 0 mm 1 mps 608 mmHg 30%
    01:00 +26°C° 0 mm 1 mps 607 mmHg 31%
    02:00 +26°C° 0 mm 1 mps 607 mmHg 33%
    03:00 +25°C° 0 mm 1 mps 607 mmHg 34%
    04:00 +25°C° 0 mm 1 mps 607 mmHg 34%
    05:00 +24°C° 0 mm 1 mps 606 mmHg 35%
    06:00 +25°C° 0 mm 1 mps 607 mmHg 31%
    07:00 +27°C° 0 mm 1 mps 608 mmHg 28%
    08:00 +28°C° 0 mm 1 mps 609 mmHg 25%
    09:00 +29°C° 0 mm 1 mps 609 mmHg 23%
    10:00 +31°C° 0 mm 1 mps 609 mmHg 21%
    11:00 +32°C° 0 mm 2 mps 610 mmHg 19%
    12:00 +34°C° 0 mm 2 mps 610 mmHg 17%
    13:00 +35°C° 0 mm 2 mps 609 mmHg 16%
    14:00 +36°C° 0 mm 2 mps 609 mmHg 15%
    15:00 +36°C° 0 mm 3 mps 609 mmHg 15%
    16:00 +36°C° 0 mm 3 mps 609 mmHg 14%
    17:00 +36°C° 0 mm 4 mps 609 mmHg 14%
    18:00 +35°C° 0 mm 3 mps 609 mmHg 16%
    19:00 +33°C° 0 mm 3 mps 609 mmHg 18%
    20:00 +31°C° 0 mm 2 mps 608 mmHg 20%
    21:00 +30°C° 0 mm 2 mps 608 mmHg 21%
    22:00 +29°C° 0 mm 2 mps 608 mmHg 23%
    23:00 +28°C° 0 mm 2 mps 608 mmHg 25%

    19 July, Thursday

    Time Temperature Precipitation Wind Pressure Humidity
    00:00 +27°C° 0 mm 1 mps 608 mmHg 27%
    01:00 +26°C° 0 mm 1 mps 607 mmHg 30%
    02:00 +25°C° 0 mm 1 mps 607 mmHg 32%
    03:00 +25°C° 0 mm 1 mps 606 mmHg 33%
    04:00 +24°C° 0 mm 1 mps 606 mmHg 34%
    05:00 +24°C° 0 mm 1 mps 606 mmHg 35%
    06:00 +25°C° 0 mm 1 mps 607 mmHg 32%
    07:00 +26°C° 0 mm 1 mps 607 mmHg 28%
    08:00 +28°C° 0 mm 1 mps 608 mmHg 24%
    09:00 +29°C° 0 mm 1 mps 608 mmHg 21%
    10:00 +31°C° 0 mm 1 mps 608 mmHg 18%
    11:00 +32°C° 0 mm 2 mps 609 mmHg 15%
    12:00 +34°C° 0 mm 2 mps 609 mmHg 14%
    13:00 +35°C° 0 mm 2 mps 609 mmHg 13%
    14:00 +36°C° 0 mm 2 mps 609 mmHg 11%
    15:00 +36°C° 0 mm 3 mps 608 mmHg 11%
    16:00 +36°C° 0 mm 3 mps 608 mmHg 11%
    17:00 +36°C° 0 mm 3 mps 608 mmHg 11%
    18:00 +35°C° 0 mm 3 mps 608 mmHg 13%
    19:00 +33°C° 0 mm 3 mps 608 mmHg 15%
    20:00 +31°C° 0 mm 3 mps 608 mmHg 17%
    21:00 +30°C° 0 mm 3 mps 607 mmHg 20%
    22:00 +29°C° 0 mm 2 mps 607 mmHg 24%
    23:00 +27°C° 0 mm 2 mps 607 mmHg 27%

    20 July, Friday

    Time Temperature Precipitation Wind Pressure Humidity
    00:00 +27°C° 0 mm 2 mps 607 mmHg 30%
    01:00 +26°C° 0 mm 1 mps 606 mmHg 33%
    02:00 +25°C° 0 mm 1 mps 606 mmHg 36%
    03:00 +24°C° 0 mm 1 mps 606 mmHg 35%
    04:00 +24°C° 0 mm 1 mps 605 mmHg 35%
    05:00 +23°C° 0 mm 1 mps 605 mmHg 34%
    06:00 +25°C° 0 mm 1 mps 606 mmHg 30%
    07:00 +26°C° 0 mm 1 mps 607 mmHg 26%
    08:00 +28°C° 0 mm 1 mps 607 mmHg 22%
    09:00 +29°C° 0 mm 1 mps 608 mmHg 19%
    10:00 +31°C° 0 mm 1 mps 608 mmHg 17%
    11:00 +32°C° 0 mm 2 mps 608 mmHg 15%
    12:00 +34°C° 0 mm 2 mps 608 mmHg 14%
    13:00 +35°C° 0 mm 2 mps 608 mmHg 13%
    14:00 +36°C° 0 mm 2 mps 608 mmHg 12%
    15:00 +36°C° 0 mm 2 mps 608 mmHg 12%
    16:00 +36°C° 0 mm 3 mps 608 mmHg 12%
    17:00 +36°C° 0 mm 3 mps 608 mmHg 12%
    18:00 +35°C° 0 mm 3 mps 608 mmHg 15%
    19:00 +33°C° 0 mm 3 mps 608 mmHg 17%
    20:00 +31°C° 0 mm 3 mps 608 mmHg 20%
    21:00 +30°C° 0 mm 3 mps 607 mmHg 23%
    22:00 +29°C° 0 mm 2 mps 607 mmHg 27%
    23:00 +28°C° 0 mm 2 mps 607 mmHg 31%

    21 July, Saturday

    Time Temperature Precipitation Wind Pressure Humidity
    00:00 +27°C° 0 mm 2 mps 607 mmHg 34%
    01:00 +26°C° 0 mm 1 mps 606 mmHg 38%
    02:00 +25°C° 0 mm 1 mps 606 mmHg 42%
    03:00 +25°C° 0 mm 1 mps 606 mmHg 43%
    04:00 +24°C° 0 mm 1 mps 606 mmHg 44%
    05:00 +23°C° 0 mm 1 mps 605 mmHg 45%
    06:00 +25°C° 0 mm 1 mps 606 mmHg 39%
    07:00 +26°C° 0 mm 1 mps 607 mmHg 33%
    08:00 +28°C° 0 mm 1 mps 607 mmHg 27%
    09:00 +29°C° 0 mm 1 mps 608 mmHg 23%
    10:00 +31°C° 0 mm 1 mps 608 mmHg 19%
    11:00 +32°C° 0 mm 2 mps 608 mmHg 16%
    12:00 +34°C° 0 mm 2 mps 608 mmHg 14%
    13:00 +35°C° 0 mm 2 mps 608 mmHg 13%
    14:00 +36°C° 0 mm 2 mps 608 mmHg 11%
    15:00 +36°C° 0 mm 3 mps 608 mmHg 11%
    16:00 +36°C° 0 mm 3 mps 608 mmHg 11%
    17:00 +37°C° 0 mm 3 mps 608 mmHg 11%
    18:00 +35°C° 0 mm 3 mps 608 mmHg 14%
    19:00 +33°C° 0 mm 3 mps 608 mmHg 17%
    20:00 +31°C° 0 mm 3 mps 608 mmHg 20%
    21:00 +30°C° 0 mm 3 mps 608 mmHg 24%
    22:00 +28°C° 0 mm 2 mps 607 mmHg 29%
    23:00 +27°C° 0 mm 2 mps 607 mmHg 33%
    Show more